Regional Weather Roundup
Issued by NWS

Home | Current Version | Previous Version | Text Only | Print | Product List | Glossary Off
Versions: 1 2 3 4 5 6 7 8 9 10 11 12 13 14 15 16 17 18 19 20 21 22 23 24 25 26 27 28 29 30 31 32 33 34 35 36 37 38 39 40 41 42 43 44 45 46 47 48 49 50

000
ASUS43 KLMK 302302
RWRKY
KENTUCKY REGIONAL WEATHER ROUNDUP
NATIONAL WEATHER SERVICE LOUISVILLE KY
700 PM EDT SUN AUG 30 2015

NOTE "FAIR" INDICATES FEW OR NO CLOUDS BELOW 12,000 FEET
WITH NO SIGNIFICANT WEATHER AND/OR OBSTRUCTIONS TO VISIBILITY.

KYZ001>023-026-027-061>063-070>075-310000-
WESTERN AND SOUTH CENTRAL KENTUCKY

CITY           SKY/WX    TMP DP  RH WIND       PRES   REMARKS
PADUCAH        MOSUNNY   81  69  67 S7        30.01S
HENDERSON      PTSUNNY   81  70  69 S7        30.02S
OWENSBORO      CLOUDY    83  72  69 SW8       30.04S
HOPKINSVILLE   LGT RAIN  72  70  93 CALM      30.07R
BOWLING GREEN  SUNNY     82  64  54 S8        30.06S
GLASGOW        SUNNY     81  61  51 S7        30.08S
$$

KYZ024-025-028>034-038-045-046-053-310000-
NORTH CENTRAL KENTUCKY

CITY           SKY/WX    TMP DP  RH WIND       PRES   REMARKS
LOUISVILLE/SDF MOSUNNY   83  69  62 SW7       30.04S
LOUISVILLE/LOU MOSUNNY   83  69  62 VRB5      30.05S
FORT KNOX      NOT AVBL
$$

KYZ035>037-039>044-047>052-055>060-089>105-310000-
NORTHEAST KENTUCKY

CITY           SKY/WX    TMP DP  RH WIND       PRES   REMARKS
LEXINGTON      CLOUDY    79  67  66 SW7       30.09R
COVINGTON      PTSUNNY   77  67  71 CALM      30.07R
FRANKFORT      PTSUNNY   74  66  76 SW10      30.07R
$$

KYZ054-064>069-076>088-106>120-310000-
SOUTHEAST KENTUCKY

CITY           SKY/WX    TMP DP  RH WIND       PRES   REMARKS
JACKSON        PTSUNNY   79  64  60 CALM      30.12S
LONDON         PTSUNNY   79  60  52 CALM      30.11S
SOMERSET       NOT AVBL
MIDDLESBORO    CLOUDY    75  68  77 CALM      30.10F
MONTICELLO     CLOUDY    78  68  71 CALM      30.12S
$$




USA.gov is the U.S. government's official web portal to all federal, state and local government web resources and services.